Time,TemperatureF,DewpointF,PressureIn,WindDirection,WindDirectionDegrees,WindSpeedMPH,WindSpeedGustMPH,Humidity,HourlyPrecipIn,Conditions,Clouds,dailyrainin,SoftwareType,DateUTC
2013-07-22 00:01:00,79.0,-99.9,29.92,West,260,4.0,7.0,-999,-99.99,,,-99.99,,2013-07-22 04:01:00,
2013-07-22 00:33:00,80.0,-99.9,29.92,WNW,301,5.0,6.0,-999,-99.99,,,-99.99,,2013-07-22 04:33:00,
2013-07-22 00:43:00,79.0,-99.9,29.92,WNW,292,5.0,7.0,-999,-99.99,,,-99.99,,2013-07-22 04:43:00,
2013-07-22 01:02:00,79.0,-99.9,29.91,WNW,302,4.0,5.0,-999,-99.99,,,-99.99,,2013-07-22 05:02:00,
2013-07-22 01:12:00,79.0,-99.9,29.91,WSW,258,6.0,8.0,-999,-99.99,,,-99.99,,2013-07-22 05:12:00,
2013-07-22 01:32:00,79.0,-99.9,29.91,WSW,249,3.0,6.0,-999,-99.99,,,-99.99,,2013-07-22 05:32:00,
2013-07-22 01:43:00,79.0,-99.9,29.92,North,-999,-999.0,-999.0,-999,-99.99,,,-99.99,,2013-07-22 05:43:00,
2013-07-22 01:52:00,79.0,-99.9,29.92,WSW,246,4.0,6.0,-999,-99.99,,,-99.99,,2013-07-22 05:52:00,
2013-07-22 02:01:00,79.0,-99.9,29.91,SSW,194,4.0,7.0,-999,-99.99,,,-99.99,,2013-07-22 06:01:00,
2013-07-22 02:33:00,78.0,-99.9,29.91,South,183,5.0,6.0,-999,-99.99,,,-99.99,,2013-07-22 06:33:00,
2013-07-22 02:43:00,78.0,-99.9,29.91,SSW,212,4.0,6.0,-999,-99.99,,,-99.99,,2013-07-22 06:43:00,
2013-07-22 02:52:00,-999.0,-99.9,29.91,WNW,289,3.0,3.0,-999,-99.99,,,-99.99,,2013-07-22 06:52:00,
2013-07-22 03:01:00,78.0,-99.9,29.91,WNW,297,3.0,4.0,-999,-99.99,,,-99.99,,2013-07-22 07:01:00,
2013-07-22 03:12:00,-999.0,-99.9,29.90,NW,314,3.0,5.0,-999,-99.99,,,-99.99,,2013-07-22 07:12:00,
2013-07-22 03:22:00,-999.0,-99.9,29.90,WNW,292,4.0,5.0,-999,-99.99,,,-99.99,,2013-07-22 07:22:00,
2013-07-22 03:33:00,78.0,-99.9,29.90,WNW,287,2.0,5.0,-999,-99.99,,,-99.99,,2013-07-22 07:33:00,
2013-07-22 03:43:00,78.0,-99.9,29.90,WNW,292,3.0,4.0,-999,-99.99,,,-99.99,,2013-07-22 07:43:00,
2013-07-22 03:53:00,78.0,-99.9,29.90,North,-999,-999.0,-999.0,-999,-99.99,,,-99.99,,2013-07-22 07:53:00,
2013-07-22 04:02:00,79.0,-99.9,29.89,NW,306,2.0,4.0,-999,-99.99,,,-99.99,,2013-07-22 08:02:00,
2013-07-22 04:11:00,78.0,-99.9,29.89,WSW,243,2.0,3.0,-999,-99.99,,,-99.99,,2013-07-22 08:11:00,
2013-07-22 04:32:00,78.0,-99.9,29.89,WNW,295,2.0,2.0,-999,-99.99,,,-99.99,,2013-07-22 08:32:00,
2013-07-22 04:43:00,78.0,-99.9,29.89,North,-999,-999.0,-999.0,-999,-99.99,,,-99.99,,2013-07-22 08:43:00,
2013-07-22 04:52:00,78.0,-99.9,29.89,North,-999,-999.0,-999.0,-999,-99.99,,,-99.99,,2013-07-22 08:52:00,
2013-07-22 05:02:00,78.0,-99.9,29.89,SSE,163,2.0,2.0,-999,-99.99,,,-99.99,,2013-07-22 09:02:00,
2013-07-22 05:22:00,-999.0,-99.9,29.89,SSE,151,2.0,3.0,-999,-99.99,,,-99.99,,2013-07-22 09:22:00,
2013-07-22 05:33:00,78.0,-99.9,29.89,SE,143,4.0,4.0,-999,-99.99,,,-99.99,,2013-07-22 09:33:00,
2013-07-22 05:42:00,77.0,-99.9,29.89,SE,142,5.0,6.0,-999,-99.99,,,-99.99,,2013-07-22 09:42:00,
2013-07-22 05:52:00,77.0,-99.9,29.89,SSE,161,5.0,8.0,-999,-99.99,,,-99.99,,2013-07-22 09:52:00,
2013-07-22 06:02:00,77.0,-99.9,29.89,SSE,149,4.0,6.0,-999,-99.99,,,-99.99,,2013-07-22 10:02:00,
2013-07-22 06:11:00,77.0,-99.9,29.89,North,-999,-999.0,-999.0,-999,-99.99,,,-99.99,,2013-07-22 10:11:00,
2013-07-22 06:32:00,76.0,-99.9,29.89,SSW,199,3.0,4.0,-999,-99.99,,,-99.99,,2013-07-22 10:32:00,
2013-07-22 06:43:00,76.0,-99.9,29.89,South,189,4.0,4.0,-999,-99.99,,,-99.99,,2013-07-22 10:43:00,
2013-07-22 06:53:00,-999.0,-99.9,29.89,SSW,201,4.0,6.0,-999,-99.99,,,-99.99,,2013-07-22 10:53:00,
2013-07-22 07:02:00,76.0,-99.9,29.89,SSW,200,4.0,6.0,-999,-99.99,,,-99.99,,2013-07-22 11:02:00,
2013-07-22 07:11:00,76.0,-99.9,29.90,SSE,160,6.0,7.0,-999,-99.99,,,-99.99,,2013-07-22 11:11:00,
2013-07-22 07:32:00,76.0,-99.9,29.90,SE,138,4.0,6.0,-999,-99.99,,,-99.99,,2013-07-22 11:32:00,
2013-07-22 07:43:00,77.0,-99.9,29.90,North,-999,-999.0,-999.0,-999,-99.99,,,-99.99,,2013-07-22 11:43:00,
2013-07-22 07:52:00,77.0,-99.9,29.90,North,-999,-999.0,-999.0,-999,-99.99,,,-99.99,,2013-07-22 11:52:00,
2013-07-22 08:02:00,77.0,-99.9,29.90,SSE,163,2.0,4.0,-999,-99.99,,,-99.99,,2013-07-22 12:02:00,
2013-07-22 08:33:00,78.0,-99.9,29.91,South,188,2.0,4.0,-999,-99.99,,,-99.99,,2013-07-22 12:33:00,
2013-07-22 08:43:00,-999.0,-99.9,29.92,SSW,203,2.0,5.0,-999,-99.99,,,-99.99,,2013-07-22 12:43:00,
2013-07-22 08:53:00,78.0,-99.9,29.91,North,-999,-999.0,-999.0,-999,-99.99,,,-99.99,,2013-07-22 12:53:00,
2013-07-22 09:01:00,78.0,-99.9,29.91,SW,214,2.0,4.0,-999,-99.99,,,-99.99,,2013-07-22 13:01:00,
2013-07-22 09:22:00,78.0,-99.9,29.91,South,177,3.0,3.0,-999,-99.99,,,-99.99,,2013-07-22 13:22:00,
2013-07-22 09:43:00,78.0,-99.9,29.91,South,189,5.0,6.0,-999,-99.99,,,-99.99,,2013-07-22 13:43:00,
2013-07-22 10:02:00,79.0,-99.9,29.91,North,-999,-999.0,-999.0,-999,-99.99,,,-99.99,,2013-07-22 14:02:00,
2013-07-22 10:12:00,-999.0,-99.9,29.91,South,178,4.0,5.0,-999,-99.99,,,-99.99,,2013-07-22 14:12:00,
2013-07-22 10:43:00,80.0,-99.9,29.91,North,-999,-999.0,-999.0,-999,-99.99,,,-99.99,,2013-07-22 14:43:00,
2013-07-22 10:53:00,-999.0,-99.9,29.91,SSE,160,4.0,4.0,-999,-99.99,,,-99.99,,2013-07-22 14:53:00,
2013-07-22 11:02:00,-999.0,-99.9,29.91,SSE,160,4.0,4.0,-999,-99.99,,,-99.99,,2013-07-22 15:02:00,
2013-07-22 11:22:00,-999.0,-99.9,29.91,SSW,198,1.0,3.0,-999,-99.99,,,-99.99,,2013-07-22 15:22:00,
2013-07-22 11:43:00,-999.0,-99.9,29.90,ESE,113,2.0,2.0,-999,-99.99,,,-99.99,,2013-07-22 15:43:00,
2013-07-22 12:43:00,-999.0,-99.9,29.89,SSE,147,4.0,6.0,-999,-99.99,,,-99.99,,2013-07-22 16:43:00,
2013-07-22 13:02:00,83.0,-99.9,29.89,South,179,5.0,7.0,-999,-99.99,,,-99.99,,2013-07-22 17:02:00,
2013-07-22 13:11:00,-999.0,-99.9,29.88,SSE,166,5.0,6.0,-999,-99.99,,,-99.99,,2013-07-22 17:11:00,
2013-07-22 13:23:00,-999.0,-99.9,29.88,South,189,6.0,9.0,-999,-99.99,,,-99.99,,2013-07-22 17:23:00,
2013-07-22 13:33:00,85.0,-99.9,29.88,South,179,9.0,12.0,-999,-99.99,,,-99.99,,2013-07-22 17:33:00,
2013-07-22 14:05:00,85.0,-99.9,29.86,SSE,161,7.0,10.0,-999,-99.99,,,-99.99,,2013-07-22 18:05:00,
2013-07-22 14:17:00,-999.0,-99.9,29.86,South,182,7.0,11.0,-999,-99.99,,,-99.99,,2013-07-22 18:17:00,
2013-07-22 14:29:00,-999.0,-99.9,29.86,South,182,7.0,11.0,-999,-99.99,,,-99.99,,2013-07-22 18:29:00,
2013-07-22 14:40:00,-999.0,-99.9,29.86,SSW,207,6.0,9.0,-999,-99.99,,,-99.99,,2013-07-22 18:40:00,
2013-07-22 14:55:00,86.0,-99.9,29.85,North,-999,-999.0,-999.0,-999,-99.99,,,-99.99,,2013-07-22 18:55:00,
2013-07-22 15:06:00,-999.0,-99.9,29.84,SW,214,7.0,9.0,-999,-99.99,,,-99.99,,2013-07-22 19:06:00,
2013-07-22 15:37:00,87.0,-99.9,29.83,SSW,202,6.0,9.0,-999,-99.99,,,-99.99,,2013-07-22 19:37:00,
2013-07-22 15:48:00,-999.0,-99.9,29.82,SSW,192,7.0,10.0,-999,-99.99,,,-99.99,,2013-07-22 19:48:00,
2013-07-22 15:55:00,-999.0,-99.9,29.81,SSW,195,9.0,11.0,-999,-99.99,,,-99.99,,2013-07-22 19:55:00,
2013-07-22 16:05:00,87.0,-99.9,29.81,SSW,210,9.0,12.0,-999,-99.99,,,-99.99,,2013-07-22 20:05:00,
2013-07-22 16:17:00,-999.0,-99.9,29.80,SSW,201,9.0,13.0,-999,-99.99,,,-99.99,,2013-07-22 20:17:00,
2013-07-22 17:01:00,87.0,-99.9,29.79,North,-999,-999.0,-999.0,-999,-99.99,,,-99.99,,2013-07-22 21:01:00,
2013-07-22 17:12:00,87.0,-99.9,29.79,South,169,7.0,12.0,-999,-99.99,,,-99.99,,2013-07-22 21:12:00,
2013-07-22 17:22:00,-999.0,-99.9,29.78,South,182,10.0,12.0,-999,-99.99,,,-99.99,,2013-07-22 21:22:00,
2013-07-22 17:33:00,87.0,-99.9,29.78,South,191,8.0,11.0,-999,-99.99,,,-99.99,,2013-07-22 21:33:00,
2013-07-22 17:43:00,87.0,-99.9,29.78,South,169,9.0,11.0,-999,-99.99,,,-99.99,,2013-07-22 21:43:00,
2013-07-22 17:53:00,-999.0,-99.9,29.78,South,181,8.0,11.0,-999,-99.99,,,-99.99,,2013-07-22 21:53:00,
2013-07-22 18:11:00,87.0,-99.9,29.78,South,183,6.0,10.0,-999,-99.99,,,-99.99,,2013-07-22 22:11:00,
2013-07-22 18:22:00,-999.0,-99.9,29.77,South,176,10.0,14.0,-999,-99.99,,,-99.99,,2013-07-22 22:22:00,
2013-07-22 18:32:00,87.0,-99.9,29.77,South,180,10.0,13.0,-999,-99.99,,,-99.99,,2013-07-22 22:32:00,
2013-07-22 18:43:00,86.0,-99.9,29.76,North,-999,-999.0,-999.0,-999,-99.99,,,-99.99,,2013-07-22 22:43:00,
2013-07-22 19:02:00,86.0,-99.9,29.76,South,182,11.0,15.0,-999,-99.99,,,-99.99,,2013-07-22 23:02:00,
2013-07-22 19:22:00,87.0,-99.9,29.75,SSW,193,9.0,13.0,-999,-99.99,,,-99.99,,2013-07-22 23:22:00,
2013-07-22 19:32:00,86.0,-99.9,29.75,South,188,11.0,13.0,-999,-99.99,,,-99.99,,2013-07-22 23:32:00,
2013-07-22 19:43:00,86.0,-99.9,29.76,North,-999,-999.0,-999.0,-999,-99.99,,,-99.99,,2013-07-22 23:43:00,
2013-07-22 19:52:00,86.0,-99.9,29.76,North,-999,-999.0,-999.0,-999,-99.99,,,-99.99,,2013-07-22 23:52:00,
2013-07-22 20:01:00,86.0,-99.9,29.76,SSE,159,10.0,11.0,-999,-99.99,,,-99.99,,2013-07-23 00:01:00,
2013-07-22 20:12:00,-999.0,-99.9,29.76,South,174,11.0,14.0,-999,-99.99,,,-99.99,,2013-07-23 00:12:00,
2013-07-22 20:32:00,86.0,-99.9,29.76,SSE,161,11.0,15.0,-999,-99.99,,,-99.99,,2013-07-23 00:32:00,
2013-07-22 21:01:00,85.0,-99.9,29.76,North,-999,-999.0,-999.0,-999,-99.99,,,-99.99,,2013-07-23 01:01:00,
2013-07-22 21:11:00,-999.0,-99.9,29.76,SSE,168,9.0,11.0,-999,-99.99,,,-99.99,,2013-07-23 01:11:00,
2013-07-22 21:22:00,-999.0,-99.9,29.76,SSE,164,7.0,10.0,-999,-99.99,,,-99.99,,2013-07-23 01:22:00,
2013-07-22 21:53:00,-999.0,-99.9,29.76,SSE,165,12.0,15.0,-999,-99.99,,,-99.99,,2013-07-23 01:53:00,
2013-07-22 22:22:00,-999.0,-99.9,29.76,South,175,13.0,15.0,-999,-99.99,,,-99.99,,2013-07-23 02:22:00,
2013-07-22 22:43:00,-999.0,-99.9,29.77,SSW,197,10.0,13.0,-999,-99.99,,,-99.99,,2013-07-23 02:43:00,
2013-07-22 22:53:00,-999.0,-99.9,29.76,South,184,11.0,14.0,-999,-99.99,,,-99.99,,2013-07-23 02:53:00,
2013-07-22 23:02:00,-999.0,-99.9,29.76,South,184,11.0,14.0,-999,-99.99,,,-99.99,,2013-07-23 03:02:00,
2013-07-22 23:11:00,-999.0,-99.9,29.76,South,185,13.0,16.0,-999,-99.99,,,-99.99,,2013-07-23 03:11:00,
2013-07-22 23:22:00,-999.0,-99.9,29.75,South,185,13.0,17.0,-999,-99.99,,,-99.99,,2013-07-23 03:22:00,
2013-07-22 23:33:00,82.0,-99.9,29.75,South,187,11.0,16.0,-999,-99.99,,,-99.99,,2013-07-23 03:33:00,
2013-07-22 23:43:00,81.0,-99.9,29.77,WNW,300,12.0,15.0,-999,-99.99,,,-99.99,,2013-07-23 03:43:00,